User: anonymous   Login
Location: Unspecified
(0.0000°N, 0.0000°E)
Time: 13:01:42
(UTC+00:00)
Language:

VELOX 1 - Orbit

View from above orbital plane
View from above orbital plane
View from above satellite
View from above satellite

Ground track
Ground track

The orbit data is extracted from the following two-line orbital elements,

1 40057U 14034E   20195.02557378  .00000156  00000-0  29406-4 0  9999
2 40057  98.2833 332.6953 0012061  67.0242 293.2226 14.77889783325416
Epoch (UTC): 13 July 2020 00:36:49
Eccentricity: 0.0012061
inclination: 98.2833°
perigee height: 627 km
apogee height: 644 km
right ascension of ascending node: 332.6953°
argument of perigee: 67.0242°
revolutions per day: 14.77889783
mean anomaly at epoch: 293.2226°
orbit number at epoch: 32541

The dashed part of the orbit path shows where the satellite is in the earth's shadow,  

DLR